User: anonymous
Location: Melbourne
(37.8170°S, 144.9670°E)
Time: 09:36:54
(UTC+10:00)
Language:

Explorer 11/Cluster Stage 4 - Orbit

View from above orbital plane
View from above orbital plane
View from above satellite
View from above satellite

Ground track
Ground track

The orbit data is extracted from the following two-line orbital elements,

1 00107U 61013A   14260.14478153  .00003418  00000-0  45826-3 0  1328
2 00107 028.7883 146.3470 0561749 354.3508 165.4725 14.05162987669511
Epoch (UTC): 17 September 2014 03:28:29
Eccentricity: 0.0561749
inclination: 28.7883°
perigee height: 468 km
apogee height: 1283 km
right ascension of ascending node: 146.3470°
argument of perigee: 354.3508°
revolutions per day: 14.05162987
mean anomaly at epoch: 165.4725°
orbit number at epoch: 66951

The dashed part of the orbit path shows where the satellite is in the earth's shadow,  

DLR